| time (UTC) | temp C | wind direction | speed KPH | gust KPH | rain 1hr cm | rain 24hr cm | rain mn cm | humidity % | barometer mb |
| 20260505171551 | 25 | 68 | 8.0 | 24.1 | 0.00 | 0.00 | 0.00 | 48 | 1016.0 |
| 20260505170057 | 26 | 360 | 1.6 | 17.7 | 0.00 | 0.00 | 0.00 | 46 | 1016.2 |
| 20260505164546 | 26 | 290 | 4.8 | 12.9 | 0.00 | 0.00 | 0.00 | 47 | 1016.4 |
| 20260505163043 | 26 | 137 | 0.0 | 12.9 | 0.00 | 0.00 | 0.00 | 48 | 1016.5 |
| 20260505161541 | 25 | 88 | 8.0 | 14.5 | 0.00 | 0.00 | 0.00 | 49 | 1016.7 |
| 20260505153033 | 23 | 279 | 3.2 | 12.9 | 0.00 | 0.00 | 0.00 | 51 | 1017.1 |
| 20260505151531 | 23 | 50 | 4.8 | 16.1 | 0.00 | 0.00 | 0.00 | 52 | 1017.3 |
| 20260505124512 | 19 | 258 | 0.0 | 12.9 | 0.00 | 0.00 | 0.00 | 60 | 1017.3 |
| 20260505123005 | 18 | 193 | 1.6 | 12.9 | 0.00 | 0.00 | 0.00 | 61 | 1017.4 |
| 20260505121504 | 18 | 360 | 4.8 | 14.5 | 0.00 | 0.00 | 0.00 | 62 | 1017.2 |
| 20260505120000 | 18 | 360 | 4.8 | 8.0 | 0.00 | 0.00 | 0.00 | 63 | 1017.3 |
| 20260505114605 | 17 | 360 | 1.6 | 12.9 | 0.00 | 0.00 | 0.00 | 64 | 1017.2 |
| 20260505113058 | 17 | 360 | 0.0 | 4.8 | 0.00 | 0.00 | 0.00 | 65 | 1017.4 |
| 20260505111601 | 17 | 360 | 1.6 | 9.7 | 0.00 | 0.00 | 0.00 | 65 | 1017.3 |
| 20260505101554 | 16 | 360 | 4.8 | 17.7 | 0.00 | 0.00 | 0.00 | 68 | 1017.4 |
| 20260505100100 | 16 | 360 | 3.2 | 16.1 | 0.00 | 0.00 | 0.00 | 68 | 1017.1 |
| 20260505094553 | 16 | 360 | 1.6 | 8.0 | 0.00 | 0.00 | 0.00 | 68 | 1016.7 |
| 20260505093053 | 16 | 360 | 4.8 | 16.1 | 0.00 | 0.00 | 0.00 | 68 | 1016.6 |
| 20260505091552 | 16 | 360 | 3.2 | 9.7 | 0.00 | 0.00 | 0.00 | 68 | 1016.8 |
| 20260505090106 | 16 | 360 | 3.2 | 12.9 | 0.00 | 0.00 | 0.00 | 68 | 1016.8 |
| 20260505084551 | 16 | 360 | 0.0 | 14.5 | 0.00 | 0.00 | 0.00 | 67 | 1016.7 |
| 20260505083101 | 16 | 360 | 1.6 | 8.0 | 0.00 | 0.00 | 0.00 | 68 | 1016.8 |
| 20260505081551 | 16 | 360 | 1.6 | 8.0 | 0.00 | 0.00 | 0.00 | 68 | 1016.6 |
| 20260505080054 | 16 | 360 | 1.6 | 8.0 | 0.00 | 0.00 | 0.00 | 68 | 1016.7 |
| 20260505074548 | 16 | 360 | 0.0 | 6.4 | 0.00 | 0.00 | 0.00 | 68 | 1016.7 |
| 20260505073056 | 16 | 360 | 0.0 | 9.7 | 0.00 | 0.00 | 0.00 | 68 | 1016.7 |
| 20260505071547 | 15 | 360 | 0.0 | 8.0 | 0.00 | 0.00 | 0.00 | 69 | 1016.7 |
| 20260505070052 | 16 | 360 | 0.0 | 4.8 | 0.00 | 0.00 | 0.00 | 67 | 1016.7 |
| 20260505064542 | 16 | 360 | 1.6 | 8.0 | 0.00 | 0.00 | 0.00 | 65 | 1016.7 |
| 20260505063041 | 16 | 360 | 0.0 | 6.4 | 0.00 | 0.00 | 0.00 | 64 | 1016.6 |
| 20260505061539 | 16 | 360 | 1.6 | 6.4 | 0.00 | 0.00 | 0.00 | 63 | 1016.7 |
| 20260505060037 | 16 | 360 | 0.0 | 8.0 | 0.00 | 0.00 | 0.00 | 62 | 1016.9 |
| 20260505054537 | 17 | 360 | 1.6 | 4.8 | 0.00 | 0.00 | 0.00 | 62 | 1016.9 |
| 20260505053035 | 17 | 360 | 0.0 | 6.4 | 0.00 | 0.00 | 0.00 | 61 | 1016.9 |
| 20260505051537 | 17 | 360 | 1.6 | 8.0 | 0.00 | 0.00 | 0.00 | 61 | 1017.0 |
| 20260505050109 | 17 | 360 | 3.2 | 9.7 | 0.00 | 0.00 | 0.00 | 60 | 1017.0 |
| 20260505041546 | 17 | 360 | 0.0 | 9.7 | 0.00 | 0.00 | 0.00 | 57 | 1017.3 |
| 20260505040028 | 17 | 360 | 4.8 | 19.3 | 0.00 | 0.00 | 0.00 | 56 | 1017.4 |
| 20260505034525 | 18 | 360 | 3.2 | 9.7 | 0.00 | 0.00 | 0.00 | 55 | 1017.4 |
| 20260505033025 | 18 | 360 | 3.2 | 12.9 | 0.00 | 0.00 | 0.00 | 54 | 1017.3 |
| 20260505031524 | 18 | 360 | 4.8 | 20.9 | 0.00 | 0.00 | 0.00 | 53 | 1017.4 |
| 20260505030029 | 18 | 360 | 0.0 | 9.7 | 0.00 | 0.00 | 0.00 | 52 | 1017.5 |
| 20260505024525 | 18 | 360 | 1.6 | 8.0 | 0.00 | 0.00 | 0.00 | 51 | 1017.5 |
| 20260505023025 | 18 | 360 | 1.6 | 8.0 | 0.00 | 0.00 | 0.00 | 51 | 1017.6 |
| 20260505021525 | 18 | 360 | 0.0 | 4.8 | 0.00 | 0.00 | 0.00 | 51 | 1017.6 |
| 20260505020021 | 18 | 360 | 3.2 | 8.0 | 0.00 | 0.00 | 0.00 | 51 | 1017.6 |
| 20260505014520 | 18 | 360 | 0.0 | 6.4 | 0.00 | 0.00 | 0.00 | 52 | 1017.5 |
| 20260505013021 | 19 | 360 | 0.0 | 9.7 | 0.00 | 0.00 | 0.00 | 51 | 1017.4 |
| 20260505011527 | 18 | 360 | 1.6 | 14.5 | 0.00 | 0.00 | 0.00 | 52 | 1017.2 |
| 20260505010018 | 18 | 360 | 0.0 | 9.7 | 0.00 | 0.00 | 0.00 | 55 | 1017.1 |
| 20260505004532 | 18 | 360 | 3.2 | 8.0 | 0.00 | 0.00 | 0.00 | 56 | 1016.9 |
| 20260505003018 | 18 | 360 | 1.6 | 16.1 | 0.00 | 0.00 | 0.00 | 56 | 1016.7 |
| 20260505001516 | 18 | 360 | 1.6 | 8.0 | 0.00 | 0.00 | 0.00 | 56 | 1016.4 |
| 20260505000027 | 18 | 360 | 1.6 | 8.0 | 0.00 | 0.00 | 0.00 | 56 | 1016.2 |
| 20260504234517 | 18 | 360 | 3.2 | 11.3 | 0.00 | 0.00 | 0.00 | 56 | 1016.1 |
| 20260504233015 | 19 | 87 | 0.0 | 11.3 | 0.00 | 0.00 | 0.00 | 55 | 1015.9 |
| 20260504231515 | 19 | 93 | 3.2 | 11.3 | 0.00 | 0.00 | 0.00 | 55 | 1015.8 |
| 20260504230018 | 20 | 92 | 4.8 | 12.9 | 0.00 | 0.00 | 0.00 | 54 | 1015.5 |
| 20260504224513 | 20 | 83 | 4.8 | 12.9 | 0.00 | 0.00 | 0.00 | 51 | 1015.6 |
| 20260504223012 | 20 | 76 | 0.0 | 14.5 | 0.00 | 0.00 | 0.00 | 51 | 1015.6 |
| 20260504221517 | 20 | 88 | 6.4 | 16.1 | 0.00 | 0.00 | 0.00 | 50 | 1015.7 |
| 20260504220011 | 21 | 88 | 4.8 | 17.7 | 0.00 | 0.00 | 0.00 | 48 | 1016.0 |
| 20260504214513 | 22 | 280 | 1.6 | 6.4 | 0.00 | 0.00 | 0.00 | 47 | 1016.1 |
| 20260504213031 | 21 | 102 | 11.3 | 16.1 | 0.00 | 0.00 | 0.00 | 47 | 1015.9 |
| 20260504211515 | 22 | 107 | 6.4 | 12.9 | 0.00 | 0.00 | 0.00 | 44 | 1016.0 |
| 20260504210011 | 23 | 269 | 6.4 | 14.5 | 0.00 | 0.00 | 0.00 | 37 | 1015.8 |
| 20260504204507 | 23 | 86 | 6.4 | 12.9 | 0.00 | 0.00 | 0.00 | 35 | 1015.7 |
| 20260504203009 | 23 | 254 | 0.0 | 29.0 | 0.00 | 0.00 | 0.00 | 34 | 1015.8 |
| 20260504201507 | 22 | 311 | 4.8 | 12.9 | 0.00 | 0.00 | 0.00 | 34 | 1015.8 |
| 20260504200003 | 23 | 71 | 1.6 | 17.7 | 0.00 | 0.00 | 0.00 | 34 | 1016.0 |
| 20260504194502 | 22 | 240 | 9.7 | 17.7 | 0.00 | 0.00 | 0.00 | 34 | 1016.2 |
| 20260504193111 | 23 | 304 | 4.8 | 16.1 | 0.00 | 0.00 | 0.00 | 34 | 1016.4 |
| 20260504191558 | 22 | 229 | 6.4 | 22.5 | 0.00 | 0.00 | 0.00 | 35 | 1016.5 |
| 20260504190116 | 22 | 209 | 3.2 | 11.3 | 0.00 | 0.00 | 0.00 | 34 | 1016.7 |
| 20260504184606 | 21 | 323 | 1.6 | 17.7 | 0.00 | 0.00 | 0.00 | 36 | 1016.9 |
| 20260504183055 | 22 | 203 | 9.7 | 22.5 | 0.00 | 0.00 | 0.00 | 35 | 1017.0 |
| 20260504181549 | 22 | 273 | 0.0 | 12.9 | 0.00 | 0.00 | 0.00 | 36 | 1017.2 |
| 20260504180048 | 21 | 264 | 6.4 | 19.3 | 0.00 | 0.00 | 0.00 | 36 | 1017.5 |
| 20260504174545 | 21 | 176 | 1.6 | 19.3 | 0.00 | 0.00 | 0.00 | 37 | 1017.7 |
| 20260504173048 | 20 | 184 | 12.9 | 22.5 | 0.00 | 0.00 | 0.00 | 37 | 1017.9 |